Location: ?????????
(54.7630°N, 39.4991°E)
Time: 02:32:41
(UTC+00:00)

Cosmos 2151 Rocket - Pass Details

Date: 14 April 2026
Orbit: 611 x 635 km, 82.5° (Epoch: 20 May)

Event Time Altitude Azimuth Distance (km) Brightness Sun altitude
Exits shadow 21:27:46 50° 292° (WNW) 797 4.1 -25.6°
Drops below altitude 10° 21:31:59 10° 4° (N) 1,995 7.2 -25.5°
Sets 21:34:16 0° 9° (N) 2,902 8.4 -25.5°
